Buffalo, SD

7:20 PM MDT on September 29, 2016 (GMT -0600)
Buffalo

Weather History for K2WX - October, 2012

Change the Weather History Date:

Tuesday, October 30, 2012

  Actual Average Record
Temperature  
Mean Temperature 52 °F 40 °F  
Max Temperature 63 °F 51 °F 70 °F (2008)
Min Temperature 40 °F 29 °F 10 °F (1996)
Degree Days  
Heating Degree Days 13 25  
Month to date heating degree days 637 586  
Since 1 July heating degree days 796 877  
Cooling Degree Days 0 0  
Month to date cooling degree days 0 0  
Year to date cooling degree days 853 512  
Growing Degree Days 2 (Base 50)    
Moisture  
Dew Point 40 °F    
Average Humidity 68    
Maximum Humidity 96    
Minimum Humidity 39    
Precipitation  
Precipitation 0.03 in 0.03 in 0.50 in (2005)
Month to date precipitation 0.58 0.66  
Year to date precipitation 8.17 13.88  
Sea Level Pressure  
Sea Level Pressure 29.96 in    
Wind  
Wind Speed 7 mph (West)    
Max Wind Speed 35 mph    
Max Gust Speed 40 mph    
T = Trace of Precipitation, MM = Missing Value Source: NWS Daily Summary

Daily Weather History Graph

Daily Weather History Graph

Search for Another Location

Airport or City:

Trip Planner

Search our weather history database for the weather conditions in past years. The results will help you decide how hot, cold, wet, or windy it might be!

Date:

Astronomy

Oct. 30, 2012 Rise Set
Actual Time 7:31 AM MDT 5:43 PM MDT
Civil Twilight 7:00 AM MDT 6:13 PM MDT
Nautical Twilight 6:25 AM MDT 6:48 PM MDT
Astronomical Twilight 5:51 AM MDT 7:23 PM MDT
Moon 6:09 PM MDT 8:24 AM MDT
Length of Visible Light 11h 12m
Length of Day
10h 11m
Full, 99% of the Moon is Illuminated
Oct 30
Full
Nov 6
Last Quarter
Nov 13
New
Nov 20
First Quarter
Nov 28
Full

Hourly Weather History & Observations

Time (MDT) Temp. Windchill Dew Point Humidity Pressure Visibility Wind Dir Wind Speed Gust Speed Precip Events Conditions
12:56 AM 48.9 °F - 41.0 °F 74% 29.91 in - West 4.6 mph - N/A   Unknown
1:56 AM 50.0 °F - 46.9 °F 89% 29.92 in - NNW 18.4 mph - 0.02 in   Unknown
2:09 AM 50.0 °F - 46.9 °F 89% 29.90 in - NE 4.6 mph - 0.01 in   Unknown
2:56 AM 45.0 °F 39.3 °F 42.1 °F 90% 29.92 in - WSW 11.5 mph - 0.01 in   Unknown
3:56 AM 45.0 °F 41.8 °F 43.0 °F 93% 29.93 in - WNW 5.8 mph - N/A   Unknown
4:56 AM 43.0 °F 38.2 °F 41.0 °F 93% 29.95 in - West 8.1 mph - N/A   Unknown
5:56 AM 42.1 °F 37.1 °F 39.9 °F 92% 29.97 in - SW 8.1 mph - N/A   Unknown
6:56 AM 41.0 °F 35.8 °F 39.0 °F 93% 29.96 in - West 8.1 mph - N/A   Unknown
7:56 AM 43.0 °F 37.7 °F 39.9 °F 89% 29.98 in - West 9.2 mph - N/A   Unknown
8:56 AM 46.0 °F 43.1 °F 43.0 °F 89% 29.99 in - West 5.8 mph - N/A   Unknown
9:56 AM 50.0 °F - 45.0 °F 83% 29.99 in - WNW 10.4 mph - N/A   Unknown
10:56 AM 52.0 °F - 46.0 °F 80% 29.99 in - West 12.7 mph - N/A   Unknown
11:56 AM 55.9 °F - 44.1 °F 64% 29.99 in - WNW 11.5 mph - N/A   Unknown
12:56 PM 60.1 °F - 41.0 °F 49% 29.97 in - WNW 10.4 mph - N/A   Unknown
1:56 PM 62.1 °F - 39.0 °F 43% 29.95 in - WNW 13.8 mph - N/A   Unknown
2:56 PM 62.1 °F - 37.0 °F 39% 29.95 in - West 8.1 mph - N/A   Unknown
3:56 PM 59.0 °F - 37.9 °F 46% 29.95 in - West 5.8 mph - N/A   Unknown
4:56 PM 57.9 °F - 39.9 °F 51% 29.96 in - West 9.2 mph - N/A   Unknown
5:56 PM 57.0 °F - 37.0 °F 47% 29.96 in - Calm Calm - N/A   Unknown
6:56 PM 55.0 °F - 37.0 °F 51% 29.98 in - Calm Calm - N/A   Unknown
7:56 PM 52.0 °F - 37.0 °F 57% 29.97 in - WSW 3.5 mph - N/A   Unknown
8:56 PM 48.9 °F - 37.0 °F 64% 29.96 in - Calm Calm - N/A   Unknown
9:56 PM 45.0 °F - 36.0 °F 71% 29.96 in - Calm Calm - N/A   Unknown
10:56 PM 42.1 °F 38.4 °F 35.1 °F 76% 29.97 in - West 5.8 mph - N/A   Unknown
11:56 PM 44.1 °F 40.8 °F 35.1 °F 71% 29.95 in - West 5.8 mph - N/A   Unknown